Voltar ao catálogo

FENGYUN 1C DEB

AtivoSSO
NORAD 35191·DEBRIS·🇨🇳 China

Lançado May 10, 1999 de Taiyuan Satellite Launch Center

Loading…

Próximas Passagens (próximas 24 horas)

TLE

AtualizadoSource: Space-Track

Época: Sep 12, 2026, 05:01 UTC

1 35191U 99025DNX 26255.20921325  .00000058  00000-0  76623-4 0  9999
2 35191  99.0452 234.7506 0102319 184.5043 175.5205 13.91329173917043

Acompanhe FENGYUN 1C DEB em tempo real com AllMySat

Download on the App Store